SES-14 (43175 NORAD) Tracking and Keplerian Element Data

This shows tracking and keplerian element data for the satellite.

Feedback or suggestion? Click here.




ElementValue
Catalog43175
NameSES-14
Epoch Orbit1369
Epoch Day261.71512265
Epoch Year2021
RAAN174.0566
Inclination0.0209
Eccentricity0.0001325
Argument of Perigee4.4779
Mean Anonmoly29.2607
Mean Motion1.00269716
Decay Rate-3.02E-06
L11 43175U 18012B 21261.71512265 -.00000302 00000-0 00000-0 0 9999
L22 43175 0.0209 174.0566 0001325 4.4779 29.2607 1.00269716 13691

Live tracking and technical data element details for SES-14 (NORAD 43175). SES-14 can be tracked NOW for your location showing map with azimuth and elevation plus other details from your city location.

Track the satellite on the map from your city or location and see movement details for azimuth, elevation, latitude, longitude, range, height, and movement on the map or in text.







IsCatalogInMostPopularTable: catalog: 43175, numindb: 540
Update: records affected: 1



GetName: 43175 SES-14

Hit Count: updated at: Sun, 26 Sep 2021 01:01:14 GMT